Location: North Evanston
(42.0634°N, 87.6976°W)
Time: 23:23:22
(UTC+00:00)

Transit 2A - Pass Details

Date: 10 May 2026
Orbit: 595 x 949 km, 66.7° (Epoch: 5 June)

Event Time Altitude Azimuth Distance (km) Brightness Sun altitude
Rises 06:58:47 0° 334° (NNW) 3,221 9.8 -28.0°
Reaches altitude 10° 07:01:26 10° 342° (NNW) 2,231 9.0 -27.9°
Maximum altitude 07:06:09 39° 52° (NE) 1,020 7.0 -27.6°
Enters shadow 07:07:55 28° 97° (E) 1,237 7.2 -27.4°
Drops below altitude 10° 07:10:27 10° 121° (ESE) 2,032 - -27.3°
Sets 07:12:45 0° 129° (SE) 2,899 - -27.1°
